Time,TemperatureF,DewpointF,PressureIn,WindDirection,WindDirectionDegrees,WindSpeedMPH,WindSpeedGustMPH,Humidity,HourlyPrecipIn,Conditions,Clouds,dailyrainin,SoftwareType,DateUTC
2013-07-13 00:06:00,66.2,57.0,30.10,SSE,162,0.0,2.0,73,0.00,,,0.00,weatherlink.com 1.10,2013-07-13 05:06:00,
2013-07-13 00:21:00,65.6,57.0,30.10,SSE,155,0.0,1.0,74,0.00,,,0.00,weatherlink.com 1.10,2013-07-13 05:21:00,
2013-07-13 00:36:00,65.4,57.0,30.11,SSE,163,1.0,2.0,75,0.00,,,0.00,weatherlink.com 1.10,2013-07-13 05:36:00,
2013-07-13 00:51:00,65.4,57.0,30.11,SSE,159,1.0,2.0,75,0.00,,,0.00,weatherlink.com 1.10,2013-07-13 05:51:00,
2013-07-13 01:06:00,64.2,57.0,30.12,SE,140,0.0,2.0,77,0.00,,,0.00,weatherlink.com 1.10,2013-07-13 06:06:00,
2013-07-13 01:21:00,64.0,56.0,30.12,SE,141,0.0,1.0,76,0.00,,,0.00,weatherlink.com 1.10,2013-07-13 06:21:00,
2013-07-13 01:37:00,63.8,56.0,30.13,SE,144,0.0,1.0,75,0.00,,,0.00,weatherlink.com 1.10,2013-07-13 06:37:00,
2013-07-13 01:51:00,63.3,57.0,30.14,SE,144,0.0,0.0,79,0.00,,,0.00,weatherlink.com 1.10,2013-07-13 06:51:00,
2013-07-13 02:06:00,62.2,55.0,30.14,SE,144,0.0,0.0,77,0.00,,,0.00,weatherlink.com 1.10,2013-07-13 07:06:00,
2013-07-13 02:21:00,61.7,56.0,30.13,SE,144,0.0,0.0,80,0.00,,,0.00,weatherlink.com 1.10,2013-07-13 07:21:00,
2013-07-13 02:36:00,61.3,55.0,30.13,SE,144,0.0,0.0,80,0.00,,,0.00,weatherlink.com 1.10,2013-07-13 07:36:00,
2013-07-13 02:51:00,62.2,55.0,30.13,South,171,0.0,2.0,78,0.00,,,0.00,weatherlink.com 1.10,2013-07-13 07:51:00,
2013-07-13 03:06:00,61.7,56.0,30.12,South,169,0.0,2.0,80,0.00,,,0.00,weatherlink.com 1.10,2013-07-13 08:06:00,
2013-07-13 03:21:00,62.0,56.0,30.12,SSE,162,1.0,2.0,80,0.00,,,0.00,weatherlink.com 1.10,2013-07-13 08:21:00,
2013-07-13 03:36:00,61.8,56.0,30.12,South,171,3.0,3.0,81,0.00,,,0.00,weatherlink.com 1.10,2013-07-13 08:36:00,
2013-07-13 03:51:00,61.0,56.0,30.12,SSE,167,1.0,3.0,84,0.00,,,0.00,weatherlink.com 1.10,2013-07-13 08:51:00,
2013-07-13 04:06:00,61.5,57.0,30.13,SSE,167,3.0,3.0,85,0.00,,,0.00,weatherlink.com 1.10,2013-07-13 09:06:00,
2013-07-13 04:21:00,61.1,57.0,30.13,South,171,3.0,3.0,86,0.00,,,0.00,weatherlink.com 1.10,2013-07-13 09:21:00,
2013-07-13 04:36:00,61.2,57.0,30.13,SSE,165,3.0,3.0,87,0.00,,,0.00,weatherlink.com 1.10,2013-07-13 09:36:00,
2013-07-13 04:51:00,61.1,58.0,30.12,South,169,2.0,3.0,88,0.00,,,0.00,weatherlink.com 1.10,2013-07-13 09:51:00,
2013-07-13 05:06:00,60.9,57.0,30.13,SSE,166,1.0,3.0,88,0.00,,,0.00,weatherlink.com 1.10,2013-07-13 10:06:00,
2013-07-13 05:21:00,60.8,58.0,30.12,SSE,157,2.0,4.0,89,0.00,,,0.00,weatherlink.com 1.10,2013-07-13 10:21:00,
2013-07-13 05:36:00,60.9,58.0,30.12,SSE,163,4.0,4.0,89,0.00,,,0.00,weatherlink.com 1.10,2013-07-13 10:36:00,
2013-07-13 05:51:00,61.7,59.0,30.11,SSE,159,4.0,6.0,89,0.00,,,0.00,weatherlink.com 1.10,2013-07-13 10:51:00,
2013-07-13 06:06:00,61.8,58.0,30.14,SSE,150,3.0,4.0,88,0.00,,,0.00,weatherlink.com 1.10,2013-07-13 11:06:00,
2013-07-13 06:21:00,61.6,58.0,30.17,SSE,163,0.0,3.0,89,0.00,,,0.00,weatherlink.com 1.10,2013-07-13 11:21:00,
2013-07-13 06:36:00,61.6,59.0,30.16,South,171,1.0,2.0,90,0.00,,,0.00,weatherlink.com 1.10,2013-07-13 11:36:00,
2013-07-13 06:51:00,62.4,60.0,30.14,SSE,163,2.0,4.0,90,0.00,,,0.00,weatherlink.com 1.10,2013-07-13 11:51:00,
2013-07-13 07:06:00,63.4,60.0,30.15,SSE,165,0.0,3.0,88,0.00,,,0.00,weatherlink.com 1.10,2013-07-13 12:06:00,
2013-07-13 07:21:00,64.3,60.0,30.16,South,181,0.0,2.0,87,0.00,,,0.00,weatherlink.com 1.10,2013-07-13 12:21:00,
2013-07-13 07:36:00,65.4,61.0,30.16,South,172,3.0,4.0,86,0.00,,,0.00,weatherlink.com 1.10,2013-07-13 12:36:00,
2013-07-13 07:51:00,66.2,62.0,30.17,South,180,1.0,3.0,85,0.00,,,0.00,weatherlink.com 1.10,2013-07-13 12:51:00,
2013-07-13 08:06:00,66.8,62.0,30.17,SW,221,0.0,2.0,84,0.00,,,0.00,weatherlink.com 1.10,2013-07-13 13:06:00,
2013-07-13 08:21:00,67.7,62.0,30.17,South,170,1.0,3.0,82,0.00,,,0.00,weatherlink.com 1.10,2013-07-13 13:21:00,
2013-07-13 08:36:00,68.9,63.0,30.17,South,173,0.0,2.0,81,0.00,,,0.00,weatherlink.com 1.10,2013-07-13 13:36:00,
2013-07-13 08:51:00,69.9,63.0,30.17,SSW,195,2.0,3.0,79,0.00,,,0.00,weatherlink.com 1.10,2013-07-13 13:51:00,
2013-07-13 09:07:00,70.7,64.0,30.16,South,180,0.0,3.0,79,0.00,,,0.00,weatherlink.com 1.10,2013-07-13 14:07:00,
2013-07-13 09:22:00,71.2,64.0,30.16,SSW,194,1.0,4.0,77,0.00,,,0.00,weatherlink.com 1.10,2013-07-13 14:22:00,
2013-07-13 09:37:00,71.8,64.0,30.16,South,186,3.0,3.0,75,0.00,,,0.00,weatherlink.com 1.10,2013-07-13 14:37:00,
2013-07-13 09:52:00,72.3,64.0,30.17,SSE,167,0.0,5.0,74,0.00,,,0.00,weatherlink.com 1.10,2013-07-13 14:52:00,
2013-07-13 10:07:00,73.2,64.0,30.17,SSE,153,1.0,4.0,74,0.00,,,0.00,weatherlink.com 1.10,2013-07-13 15:07:00,
2013-07-13 10:22:00,73.3,64.0,30.16,SSW,207,2.0,5.0,72,0.00,,,0.00,weatherlink.com 1.10,2013-07-13 15:22:00,
2013-07-13 10:37:00,74.1,64.0,30.16,SSE,152,0.0,5.0,71,0.00,,,0.00,weatherlink.com 1.10,2013-07-13 15:37:00,
2013-07-13 10:52:00,74.4,64.0,30.16,SSW,205,1.0,5.0,69,0.00,,,0.00,weatherlink.com 1.10,2013-07-13 15:52:00,
2013-07-13 11:07:00,74.9,63.0,30.17,SSW,195,3.0,4.0,67,0.00,,,0.00,weatherlink.com 1.10,2013-07-13 16:07:00,
2013-07-13 11:22:00,75.3,63.0,30.18,South,181,3.0,4.0,66,0.00,,,0.00,weatherlink.com 1.10,2013-07-13 16:22:00,
2013-07-13 11:37:00,75.8,64.0,30.17,SE,140,3.0,4.0,66,0.00,,,0.00,weatherlink.com 1.10,2013-07-13 16:37:00,
2013-07-13 11:52:00,76.7,64.0,30.17,SSW,205,4.0,7.0,64,0.00,,,0.00,weatherlink.com 1.10,2013-07-13 16:52:00,
2013-07-13 12:07:00,77.0,64.0,30.16,SSE,167,0.0,4.0,65,0.00,,,0.00,weatherlink.com 1.10,2013-07-13 17:07:00,
2013-07-13 12:22:00,78.2,65.0,30.16,SSE,154,1.0,4.0,63,0.00,,,0.00,weatherlink.com 1.10,2013-07-13 17:22:00,
2013-07-13 12:37:00,78.0,65.0,30.16,SE,130,3.0,3.0,65,0.00,,,0.00,weatherlink.com 1.10,2013-07-13 17:37:00,
2013-07-13 12:52:00,78.4,65.0,30.16,SE,141,0.0,4.0,63,0.00,,,0.00,weatherlink.com 1.10,2013-07-13 17:52:00,
2013-07-13 13:07:00,78.6,64.0,30.15,SSE,148,4.0,5.0,62,0.00,,,0.00,weatherlink.com 1.10,2013-07-13 18:07:00,
2013-07-13 13:22:00,79.0,62.0,30.15,South,169,2.0,5.0,57,0.00,,,0.00,weatherlink.com 1.10,2013-07-13 18:22:00,
2013-07-13 13:37:00,78.9,63.0,30.15,SE,139,1.0,5.0,58,0.00,,,0.00,weatherlink.com 1.10,2013-07-13 18:37:00,
2013-07-13 13:52:00,79.6,63.0,30.15,SSE,163,2.0,5.0,58,0.00,,,0.00,weatherlink.com 1.10,2013-07-13 18:52:00,
2013-07-13 14:07:00,79.9,63.0,30.15,SSE,148,0.0,1.0,56,0.00,,,0.00,weatherlink.com 1.10,2013-07-13 19:07:00,
2013-07-13 14:22:00,80.1,64.0,30.15,SSE,156,2.0,6.0,58,0.00,,,0.00,weatherlink.com 1.10,2013-07-13 19:22:00,
2013-07-13 14:37:00,80.1,62.0,30.15,South,178,3.0,5.0,55,0.00,,,0.00,weatherlink.com 1.10,2013-07-13 19:37:00,
2013-07-13 14:52:00,80.0,63.0,30.14,ESE,121,3.0,6.0,57,0.00,,,0.00,weatherlink.com 1.10,2013-07-13 19:52:00,
2013-07-13 15:07:00,80.5,64.0,30.14,SSE,155,2.0,4.0,58,0.00,,,0.00,weatherlink.com 1.10,2013-07-13 20:07:00,
2013-07-13 15:22:00,80.4,62.0,30.14,East,88,5.0,5.0,54,0.00,,,0.00,weatherlink.com 1.10,2013-07-13 20:22:00,
2013-07-13 15:37:00,80.1,62.0,30.13,South,171,2.0,6.0,54,0.00,,,0.00,weatherlink.com 1.10,2013-07-13 20:37:00,
2013-07-13 15:52:00,79.8,61.0,30.13,SE,132,2.0,6.0,52,0.00,,,0.00,weatherlink.com 1.10,2013-07-13 20:52:00,
2013-07-13 16:07:00,80.0,61.0,30.13,SE,140,2.0,5.0,53,0.00,,,0.00,weatherlink.com 1.10,2013-07-13 21:07:00,
2013-07-13 16:22:00,80.1,62.0,30.13,SSE,159,0.0,3.0,54,0.00,,,0.00,weatherlink.com 1.10,2013-07-13 21:22:00,
2013-07-13 16:37:00,80.2,62.0,30.13,SE,133,1.0,2.0,54,0.00,,,0.00,weatherlink.com 1.10,2013-07-13 21:37:00,
2013-07-13 16:52:00,80.1,62.0,30.13,SE,140,2.0,5.0,54,0.00,,,0.00,weatherlink.com 1.10,2013-07-13 21:52:00,
2013-07-13 17:07:00,79.9,61.0,30.12,SSE,165,3.0,6.0,53,0.00,,,0.00,weatherlink.com 1.10,2013-07-13 22:07:00,
2013-07-13 17:22:00,79.7,62.0,30.13,SE,144,1.0,5.0,54,0.00,,,0.00,weatherlink.com 1.10,2013-07-13 22:22:00,
2013-07-13 17:37:00,79.6,61.0,30.12,SE,136,1.0,5.0,54,0.00,,,0.00,weatherlink.com 1.10,2013-07-13 22:37:00,
2013-07-13 17:52:00,79.6,62.0,30.12,SE,137,3.0,4.0,55,0.00,,,0.00,weatherlink.com 1.10,2013-07-13 22:52:00,
2013-07-13 18:07:00,79.3,63.0,30.12,SE,142,2.0,5.0,57,0.00,,,0.00,weatherlink.com 1.10,2013-07-13 23:07:00,
2013-07-13 18:22:00,79.0,62.0,30.12,SE,142,3.0,4.0,57,0.00,,,0.00,weatherlink.com 1.10,2013-07-13 23:22:00,
2013-07-13 18:37:00,78.7,62.0,30.12,SE,136,0.0,3.0,57,0.00,,,0.00,weatherlink.com 1.10,2013-07-13 23:37:00,
2013-07-13 18:52:00,78.2,63.0,30.12,SE,135,1.0,1.0,60,0.00,,,0.00,weatherlink.com 1.10,2013-07-13 23:52:00,
2013-07-13 19:07:00,77.8,63.0,30.12,SE,136,0.0,2.0,61,0.00,,,0.00,weatherlink.com 1.10,2013-07-14 00:07:00,
2013-07-13 19:22:00,76.9,63.0,30.12,SE,127,1.0,2.0,63,0.00,,,0.00,weatherlink.com 1.10,2013-07-14 00:22:00,
2013-07-13 19:37:00,75.9,63.0,30.12,SE,127,0.0,1.0,65,0.00,,,0.00,weatherlink.com 1.10,2013-07-14 00:37:00,
2013-07-13 19:52:00,74.9,62.0,30.12,SE,130,2.0,3.0,65,0.00,,,0.00,weatherlink.com 1.10,2013-07-14 00:52:00,
2013-07-13 20:07:00,74.1,62.0,30.12,SE,134,0.0,1.0,67,0.00,,,0.00,weatherlink.com 1.10,2013-07-14 01:07:00,
2013-07-13 20:22:00,73.1,63.0,30.12,SE,134,0.0,0.0,70,0.00,,,0.00,weatherlink.com 1.10,2013-07-14 01:22:00,
2013-07-13 20:37:00,72.0,63.0,30.12,SE,134,0.0,0.0,72,0.00,,,0.00,weatherlink.com 1.10,2013-07-14 01:37:00,
2013-07-13 20:52:00,71.2,62.0,30.12,SE,134,0.0,0.0,73,0.00,,,0.00,weatherlink.com 1.10,2013-07-14 01:52:00,
2013-07-13 21:07:00,71.0,62.0,30.13,SE,136,0.0,0.0,74,0.00,,,0.00,weatherlink.com 1.10,2013-07-14 02:07:00,
2013-07-13 21:22:00,70.8,62.0,30.14,SE,132,0.0,1.0,74,0.00,,,0.00,weatherlink.com 1.10,2013-07-14 02:22:00,
2013-07-13 21:37:00,71.1,62.0,30.14,NE,36,0.0,2.0,72,0.00,,,0.00,weatherlink.com 1.10,2013-07-14 02:37:00,
2013-07-13 21:52:00,71.3,62.0,30.15,NE,36,0.0,0.0,72,0.00,,,0.00,weatherlink.com 1.10,2013-07-14 02:52:00,
2013-07-13 22:07:00,70.7,62.0,30.15,NE,36,0.0,0.0,73,0.00,,,0.00,weatherlink.com 1.10,2013-07-14 03:07:00,
2013-07-13 22:22:00,70.4,61.0,30.15,NE,36,0.0,0.0,73,0.00,,,0.00,weatherlink.com 1.10,2013-07-14 03:22:00,
2013-07-13 22:37:00,70.1,61.0,30.15,NE,36,0.0,0.0,74,0.00,,,0.00,weatherlink.com 1.10,2013-07-14 03:37:00,
2013-07-13 22:52:00,69.9,61.0,30.15,NE,36,0.0,0.0,74,0.00,,,0.00,weatherlink.com 1.10,2013-07-14 03:52:00,
2013-07-13 23:07:00,69.6,61.0,30.15,NE,36,0.0,0.0,75,0.00,,,0.00,weatherlink.com 1.10,2013-07-14 04:07:00,
2013-07-13 23:22:00,69.4,61.0,30.15,East,90,0.0,2.0,75,0.00,,,0.00,weatherlink.com 1.10,2013-07-14 04:22:00,
2013-07-13 23:37:00,68.9,61.0,30.15,ESE,115,0.0,2.0,77,0.00,,,0.00,weatherlink.com 1.10,2013-07-14 04:37:00,
2013-07-13 23:52:00,68.4,62.0,30.15,SE,129,0.0,3.0,79,0.00,,,0.00,weatherlink.com 1.10,2013-07-14 04:52:00,